TimeEST,TemperatureF,Dew PointF,Humidity,Sea Level PressureIn,VisibilityMPH,Wind Direction,Wind SpeedMPH,Gust SpeedMPH,PrecipitationIn,Events,Conditions,WindDirDegrees,DateUTC
12:56 AM,30.9,26.1,82,30.49,10.0,Calm,Calm,-,N/A,,Clear,0,2012-11-17 05:56:00
1:56 AM,30.0,26.1,85,30.50,10.0,Calm,Calm,-,N/A,,Clear,0,2012-11-17 06:56:00
2:56 AM,30.9,26.1,82,30.51,10.0,Calm,Calm,-,N/A,,Clear,0,2012-11-17 07:56:00
3:56 AM,30.0,26.1,85,30.52,10.0,WSW,3.5,-,N/A,,Clear,250,2012-11-17 08:56:00
4:56 AM,28.9,26.1,89,30.55,10.0,WSW,4.6,-,N/A,,Clear,240,2012-11-17 09:56:00
5:56 AM,28.9,26.1,89,30.56,10.0,WSW,5.8,-,N/A,,Clear,240,2012-11-17 10:56:00
6:56 AM,28.0,25.0,88,30.58,10.0,WSW,4.6,-,N/A,,Clear,240,2012-11-17 11:56:00
7:56 AM,32.0,28.0,85,30.61,10.0,WSW,4.6,-,N/A,,Clear,250,2012-11-17 12:56:00
8:56 AM,41.0,32.0,70,30.63,10.0,Calm,Calm,-,N/A,,Clear,0,2012-11-17 13:56:00
9:56 AM,45.0,28.9,53,30.63,10.0,NNW,3.5,-,N/A,,Clear,330,2012-11-17 14:56:00
10:56 AM,48.0,28.9,48,30.63,10.0,Calm,Calm,-,N/A,,Clear,0,2012-11-17 15:56:00
12:56 PM,52.0,28.9,41,30.59,10.0,Calm,Calm,-,N/A,,Clear,0,2012-11-17 17:56:00
1:56 PM,54.0,28.9,38,30.58,10.0,NNW,3.5,-,N/A,,Clear,340,2012-11-17 18:56:00
2:56 PM,55.0,30.0,38,30.58,10.0,Calm,Calm,-,N/A,,Clear,0,2012-11-17 19:56:00
3:56 PM,54.0,30.0,40,30.58,10.0,North,4.6,-,N/A,,Clear,360,2012-11-17 20:56:00
4:56 PM,46.9,32.0,56,30.59,10.0,Calm,Calm,-,N/A,,Clear,0,2012-11-17 21:56:00
5:56 PM,41.0,32.0,70,30.61,10.0,SW,3.5,-,N/A,,Clear,230,2012-11-17 22:56:00
6:56 PM,39.9,30.9,70,30.61,10.0,Calm,Calm,-,N/A,,Clear,0,2012-11-17 23:56:00
7:56 PM,36.0,30.0,79,30.60,10.0,Calm,Calm,-,N/A,,Clear,0,2012-11-18 00:56:00
8:56 PM,36.0,30.0,79,30.61,9.0,Calm,Calm,-,N/A,,Clear,0,2012-11-18 01:56:00
9:56 PM,35.1,30.0,82,30.62,10.0,Calm,Calm,-,N/A,,Clear,0,2012-11-18 02:56:00
10:56 PM,32.0,28.9,88,30.62,8.0,Calm,Calm,-,N/A,,Clear,0,2012-11-18 03:56:00
11:56 PM,32.0,28.0,85,30.63,7.0,Calm,Calm,-,N/A,,Clear,0,2012-11-18 04:56:00